Location: Anmer
(52.8333°N, 0.5833°E)
Time: 05:39:39
(UTC+00:00)

ATLAS 2AS CENTAUR R/B - Pass Details

Date: 15 May 2026
Orbit: 1053 x 1158 km, 63.7° (Epoch: 6 June)

Event Time Altitude Azimuth Distance (km) Brightness Sun altitude
Rises 22:41:26 0° 296° (WNW) 3,859 6.3 -16.4°
Reaches altitude 10° 22:44:23 10° 305° (NW) 2,893 5.7 -16.5°
Maximum altitude 22:50:33 35° 10° (N) 1,645 4.3 -16.8°
Drops below altitude 10° 22:56:41 10° 75° (ENE) 2,876 5.0 -17.0°
Sets 22:59:36 0° 84° (E) 3,833 5.5 -17.2°
